owner,sensor,date,latitude,longitude,air_temperature,qcFlag 
ADCP,ioos:station:NOAA.NDBC:WDEL1:1,2010-08-01T00:30:00Z,28.6620,-89.5510,33.4,11111222 
ADCP,ioos:station:NOAA.NDBC:WDEL1:1,2010-08-01T03:30:00Z,28.6620,-89.5510,31.0,11111222 
ADCP,ioos:station:NOAA.NDBC:WDEL1:1,2010-08-01T04:00:00Z,28.6620,-89.5510,30.8,11111222 
ADCP,ioos:station:NOAA.NDBC:WDEL1:1,2010-08-01T05:30:00Z,28.6620,-89.5510,30.8,11111222 
ADCP,ioos:station:NOAA.NDBC:WDEL1:1,2010-08-01T07:30:00Z,28.6620,-89.5510,30.7,11111222 
ADCP,ioos:station:NOAA.NDBC:WDEL1:1,2010-08-01T10:30:00Z,28.6620,-89.5510,30.3,11111222 
ADCP,ioos:station:NOAA.NDBC:WDEL1:1,2010-08-01T11:30:00Z,28.6620,-89.5510,30.3,11111222 
ADCP,ioos:station:NOAA.NDBC:WDEL1:1,2010-08-01T12:30:00Z,28.6620,-89.5510,30.3,11111222 
ADCP,ioos:station:NOAA.NDBC:WDEL1:1,2010-08-01T13:30:00Z,28.6620,-89.5510,30.4,11111222 
ADCP,ioos:station:NOAA.NDBC:WDEL1:1,2010-08-01T14:30:00Z,28.6620,-89.5510,30.3,11111222 
ADCP,ioos:station:NOAA.NDBC:WDEL1:1,2010-08-01T16:30:00Z,28.6620,-89.5510,31.5,11111222 
ADCP,ioos:station:NOAA.NDBC:WDEL1:1,2010-08-01T17:30:00Z,28.6620,-89.5510,31.9,11111222 
ADCP,ioos:station:NOAA.NDBC:WDEL1:1,2010-08-01T19:30:00Z,28.6620,-89.5510,32.9,11111222 
ADCP,ioos:station:NOAA.NDBC:WDEL1:1,2010-08-02T03:30:00Z,28.6620,-89.5510,31.9,11111222 
ADCP,ioos:station:NOAA.NDBC:WDEL1:1,2010-08-02T05:00:00Z,28.6620,-89.5510,33.0,11111222 
ADCP,ioos:station:NOAA.NDBC:WDEL1:1,2010-08-02T06:30:00Z,28.6620,-89.5510,31.5,11111222 
ADCP,ioos:station:NOAA.NDBC:WDEL1:1,2010-08-02T07:30:00Z,28.6620,-89.5510,31.0,11111222 
ADCP,ioos:station:NOAA.NDBC:WDEL1:1,2010-08-02T08:30:00Z,28.6620,-89.5510,30.8,11111222 
ADCP,ioos:station:NOAA.NDBC:WDEL1:1,2010-08-02T10:30:00Z,28.6620,-89.5510,30.8,11111222 
ADCP,ioos:station:NOAA.NDBC:WDEL1:1,2010-08-02T13:30:00Z,28.6620,-89.5510,31.0,11111222 
ADCP,ioos:station:NOAA.NDBC:WDEL1:1,2010-08-02T15:30:00Z,28.6620,-89.5510,32.5,11111222 
ADCP,ioos:station:NOAA.NDBC:WDEL1:1,2010-08-02T17:30:00Z,28.6620,-89.5510,34.5,11111222 
ADCP,ioos:station:NOAA.NDBC:WDEL1:1,2010-08-02T22:30:00Z,28.6620,-89.5510,31.2,11111222 
ADCP,ioos:station:NOAA.NDBC:WDEL1:1,2010-08-02T23:30:00Z,28.6620,-89.5510,31.1,11111222 
ADCP,ioos:station:NOAA.NDBC:WDEL1:1,2010-08-03T01:30:00Z,28.6620,-89.5510,30.6,11111222 
ADCP,ioos:station:NOAA.NDBC:WDEL1:1,2010-08-03T02:30:00Z,28.6620,-89.5510,30.5,11111222 
ADCP,ioos:station:NOAA.NDBC:WDEL1:1,2010-08-03T03:30:00Z,28.6620,-89.5510,30.4,11111222 
ADCP,ioos:station:NOAA.NDBC:WDEL1:1,2010-08-03T04:30:00Z,28.6620,-89.5510,30.3,11111222 
ADCP,ioos:station:NOAA.NDBC:WDEL1:1,2010-08-03T05:30:00Z,28.6620,-89.5510,30.0,11111222 
ADCP,ioos:station:NOAA.NDBC:WDEL1:1,2010-08-03T06:30:00Z,28.6620,-89.5510,29.8,11111222 
ADCP,ioos:station:NOAA.NDBC:WDEL1:1,2010-08-03T07:30:00Z,28.6620,-89.5510,29.7,11111222 
ADCP,ioos:station:NOAA.NDBC:WDEL1:1,2010-08-03T09:30:00Z,28.6620,-89.5510,29.6,11111222 
ADCP,ioos:station:NOAA.NDBC:WDEL1:1,2010-08-03T10:30:00Z,28.6620,-89.5510,29.5,11111222 
ADCP,ioos:station:NOAA.NDBC:WDEL1:1,2010-08-03T12:30:00Z,28.6620,-89.5510,29.5,11111222 
ADCP,ioos:station:NOAA.NDBC:WDEL1:1,2010-08-03T13:30:00Z,28.6620,-89.5510,32.7,11111222 
ADCP,ioos:station:NOAA.NDBC:WDEL1:1,2010-08-03T14:30:00Z,28.6620,-89.5510,31.7,11111222 
ADCP,ioos:station:NOAA.NDBC:WDEL1:1,2010-08-03T17:30:00Z,28.6620,-89.5510,30.2,11111222 
ADCP,ioos:station:NOAA.NDBC:WDEL1:1,2010-08-03T18:30:00Z,28.6620,-89.5510,31.8,11111222 
ADCP,ioos:station:NOAA.NDBC:WDEL1:1,2010-08-03T19:30:00Z,28.6620,-89.5510,30.3,11111222 
ADCP,ioos:station:NOAA.NDBC:WDEL1:1,2010-08-03T20:30:00Z,28.6620,-89.5510,30.5,11111222 
ADCP,ioos:station:NOAA.NDBC:WDEL1:1,2010-08-03T21:30:00Z,28.6620,-89.5510,30.7,11111222 
ADCP,ioos:station:NOAA.NDBC:WDEL1:1,2010-08-03T22:30:00Z,28.6620,-89.5510,30.4,11111222 
ADCP,ioos:station:NOAA.NDBC:WDEL1:1,2010-08-03T23:30:00Z,28.6620,-89.5510,30.8,11111222 
ADCP,ioos:station:NOAA.NDBC:WDEL1:1,2010-08-04T00:30:00Z,28.6620,-89.5510,32.2,11111222 
ADCP,ioos:station:NOAA.NDBC:WDEL1:1,2010-08-04T01:30:00Z,28.6620,-89.5510,30.5,11111222 
ADCP,ioos:station:NOAA.NDBC:WDEL1:1,2010-08-04T02:30:00Z,28.6620,-89.5510,30.2,11111222 
ADCP,ioos:station:NOAA.NDBC:WDEL1:1,2010-08-04T03:30:00Z,28.6620,-89.5510,30.3,11111222 
ADCP,ioos:station:NOAA.NDBC:WDEL1:1,2010-08-04T04:30:00Z,28.6620,-89.5510,30.2,11111222 
ADCP,ioos:station:NOAA.NDBC:WDEL1:1,2010-08-04T06:30:00Z,28.6620,-89.5510,29.8,11111222 
ADCP,ioos:station:NOAA.NDBC:WDEL1:1,2010-08-04T07:30:00Z,28.6620,-89.5510,29.8,11111222 
ADCP,ioos:station:NOAA.NDBC:WDEL1:1,2010-08-04T08:30:00Z,28.6620,-89.5510,29.7,11111222 
ADCP,ioos:station:NOAA.NDBC:WDEL1:1,2010-08-04T09:30:00Z,28.6620,-89.5510,29.8,11111222 
ADCP,ioos:station:NOAA.NDBC:WDEL1:1,2010-08-04T10:30:00Z,28.6620,-89.5510,29.8,11111222 
ADCP,ioos:station:NOAA.NDBC:WDEL1:1,2010-08-04T11:30:00Z,28.6620,-89.5510,29.7,11111222 
ADCP,ioos:station:NOAA.NDBC:WDEL1:1,2010-08-04T12:30:00Z,28.6620,-89.5510,29.9,11111222 
ADCP,ioos:station:NOAA.NDBC:WDEL1:1,2010-08-04T13:30:00Z,28.6620,-89.5510,31.3,11111222 
ADCP,ioos:station:NOAA.NDBC:WDEL1:1,2010-08-04T14:30:00Z,28.6620,-89.5510,30.2,11111222 
ADCP,ioos:station:NOAA.NDBC:WDEL1:1,2010-08-04T15:30:00Z,28.6620,-89.5510,30.2,11111222 
ADCP,ioos:station:NOAA.NDBC:WDEL1:1,2010-08-04T17:30:00Z,28.6620,-89.5510,30.7,11111222 
ADCP,ioos:station:NOAA.NDBC:WDEL1:1,2010-08-04T18:30:00Z,28.6620,-89.5510,33.4,11111222 
ADCP,ioos:station:NOAA.NDBC:WDEL1:1,2010-08-04T19:30:00Z,28.6620,-89.5510,31.4,11111222 
ADCP,ioos:station:NOAA.NDBC:WDEL1:1,2010-08-04T20:30:00Z,28.6620,-89.5510,31.2,11111222 
ADCP,ioos:station:NOAA.NDBC:WDEL1:1,2010-08-04T21:30:00Z,28.6620,-89.5510,31.0,11111222 
ADCP,ioos:station:NOAA.NDBC:WDEL1:1,2010-08-04T23:30:00Z,28.6620,-89.5510,31.0,11111222 
ADCP,ioos:station:NOAA.NDBC:WDEL1:1,2010-08-05T03:30:00Z,28.6620,-89.5510,30.5,11111222 
ADCP,ioos:station:NOAA.NDBC:WDEL1:1,2010-08-05T05:30:00Z,28.6620,-89.5510,30.1,11111222 
ADCP,ioos:station:NOAA.NDBC:WDEL1:1,2010-08-05T06:30:00Z,28.6620,-89.5510,30.4,11111222 
ADCP,ioos:station:NOAA.NDBC:WDEL1:1,2010-08-05T07:30:00Z,28.6620,-89.5510,30.3,11111222 
ADCP,ioos:station:NOAA.NDBC:WDEL1:1,2010-08-05T08:30:00Z,28.6620,-89.5510,30.0,11111222 
ADCP,ioos:station:NOAA.NDBC:WDEL1:1,2010-08-05T09:30:00Z,28.6620,-89.5510,29.3,11111222 
ADCP,ioos:station:NOAA.NDBC:WDEL1:1,2010-08-05T10:30:00Z,28.6620,-89.5510,29.5,11111222 
ADCP,ioos:station:NOAA.NDBC:WDEL1:1,2010-08-05T11:30:00Z,28.6620,-89.5510,29.9,11111222 
ADCP,ioos:station:NOAA.NDBC:WDEL1:1,2010-08-05T13:30:00Z,28.6620,-89.5510,29.7,11111222 
ADCP,ioos:station:NOAA.NDBC:WDEL1:1,2010-08-05T14:30:00Z,28.6620,-89.5510,29.1,11111222 
ADCP,ioos:station:NOAA.NDBC:WDEL1:1,2010-08-05T15:30:00Z,28.6620,-89.5510,28.5,11111222 
ADCP,ioos:station:NOAA.NDBC:WDEL1:1,2010-08-05T16:30:00Z,28.6620,-89.5510,28.2,11111222 
ADCP,ioos:station:NOAA.NDBC:WDEL1:1,2010-08-05T17:30:00Z,28.6620,-89.5510,29.0,11111222 
ADCP,ioos:station:NOAA.NDBC:WDEL1:1,2010-08-05T18:30:00Z,28.6620,-89.5510,29.3,11111222 
ADCP,ioos:station:NOAA.NDBC:WDEL1:1,2010-08-05T19:30:00Z,28.6620,-89.5510,28.9,11111222 
ADCP,ioos:station:NOAA.NDBC:WDEL1:1,2010-08-05T20:30:00Z,28.6620,-89.5510,29.4,11111222 
ADCP,ioos:station:NOAA.NDBC:WDEL1:1,2010-08-05T21:30:00Z,28.6620,-89.5510,29.8,11111222 
ADCP,ioos:station:NOAA.NDBC:WDEL1:1,2010-08-05T22:30:00Z,28.6620,-89.5510,30.3,11111222 
ADCP,ioos:station:NOAA.NDBC:WDEL1:1,2010-08-05T23:30:00Z,28.6620,-89.5510,30.3,11111222 
ADCP,ioos:station:NOAA.NDBC:WDEL1:1,2010-08-06T00:30:00Z,28.6620,-89.5510,30.9,11111222 
ADCP,ioos:station:NOAA.NDBC:WDEL1:1,2010-08-06T01:30:00Z,28.6620,-89.5510,29.8,11111222 
ADCP,ioos:station:NOAA.NDBC:WDEL1:1,2010-08-06T02:30:00Z,28.6620,-89.5510,29.9,11111222 
ADCP,ioos:station:NOAA.NDBC:WDEL1:1,2010-08-06T05:30:00Z,28.6620,-89.5510,29.9,11111222 
ADCP,ioos:station:NOAA.NDBC:WDEL1:1,2010-08-06T06:30:00Z,28.6620,-89.5510,29.7,11111222 
ADCP,ioos:station:NOAA.NDBC:WDEL1:1,2010-08-06T07:30:00Z,28.6620,-89.5510,29.6,11111222 
ADCP,ioos:station:NOAA.NDBC:WDEL1:1,2010-08-06T08:30:00Z,28.6620,-89.5510,29.5,11111222 
ADCP,ioos:station:NOAA.NDBC:WDEL1:1,2010-08-06T09:30:00Z,28.6620,-89.5510,29.5,11111222 
ADCP,ioos:station:NOAA.NDBC:WDEL1:1,2010-08-06T10:30:00Z,28.6620,-89.5510,29.5,11111222 
ADCP,ioos:station:NOAA.NDBC:WDEL1:1,2010-08-06T11:30:00Z,28.6620,-89.5510,29.5,11111222 
ADCP,ioos:station:NOAA.NDBC:WDEL1:1,2010-08-06T12:30:00Z,28.6620,-89.5510,29.6,11111222 
ADCP,ioos:station:NOAA.NDBC:WDEL1:1,2010-08-06T13:30:00Z,28.6620,-89.5510,29.8,11111222 
ADCP,ioos:station:NOAA.NDBC:WDEL1:1,2010-08-06T14:30:00Z,28.6620,-89.5510,29.8,11111222 
ADCP,ioos:station:NOAA.NDBC:WDEL1:1,2010-08-06T15:30:00Z,28.6620,-89.5510,29.8,11111222 
ADCP,ioos:station:NOAA.NDBC:WDEL1:1,2010-08-06T16:30:00Z,28.6620,-89.5510,29.5,11111222 
ADCP,ioos:station:NOAA.NDBC:WDEL1:1,2010-08-06T17:30:00Z,28.6620,-89.5510,29.6,11111222 
ADCP,ioos:station:NOAA.NDBC:WDEL1:1,2010-08-06T18:30:00Z,28.6620,-89.5510,30.2,11111222 
ADCP,ioos:station:NOAA.NDBC:WDEL1:1,2010-08-06T19:30:00Z,28.6620,-89.5510,30.3,11111222 
ADCP,ioos:station:NOAA.NDBC:WDEL1:1,2010-08-06T20:30:00Z,28.6620,-89.5510,30.5,11111222 
ADCP,ioos:station:NOAA.NDBC:WDEL1:1,2010-08-06T21:30:00Z,28.6620,-89.5510,30.5,11111222 
ADCP,ioos:station:NOAA.NDBC:WDEL1:1,2010-08-06T22:30:00Z,28.6620,-89.5510,30.8,11111222 
ADCP,ioos:station:NOAA.NDBC:WDEL1:1,2010-08-06T23:30:00Z,28.6620,-89.5510,30.3,11111222 
ADCP,ioos:station:NOAA.NDBC:WDEL1:1,2010-08-07T00:30:00Z,28.6620,-89.5510,30.0,11111222 
ADCP,ioos:station:NOAA.NDBC:WDEL1:1,2010-08-07T01:30:00Z,28.6620,-89.5510,30.0,11111222 
ADCP,ioos:station:NOAA.NDBC:WDEL1:1,2010-08-07T02:30:00Z,28.6620,-89.5510,29.8,11111222 
ADCP,ioos:station:NOAA.NDBC:WDEL1:1,2010-08-07T03:30:00Z,28.6620,-89.5510,29.8,11111222 
ADCP,ioos:station:NOAA.NDBC:WDEL1:1,2010-08-07T04:30:00Z,28.6620,-89.5510,29.9,11111222 
ADCP,ioos:station:NOAA.NDBC:WDEL1:1,2010-08-07T05:30:00Z,28.6620,-89.5510,29.9,11111222 
ADCP,ioos:station:NOAA.NDBC:WDEL1:1,2010-08-07T06:30:00Z,28.6620,-89.5510,29.8,11111222 
ADCP,ioos:station:NOAA.NDBC:WDEL1:1,2010-08-07T07:30:00Z,28.6620,-89.5510,29.7,11111222 
ADCP,ioos:station:NOAA.NDBC:WDEL1:1,2010-08-07T08:30:00Z,28.6620,-89.5510,29.7,11111222 
ADCP,ioos:station:NOAA.NDBC:WDEL1:1,2010-08-07T09:30:00Z,28.6620,-89.5510,29.6,11111222 
ADCP,ioos:station:NOAA.NDBC:WDEL1:1,2010-08-07T10:30:00Z,28.6620,-89.5510,29.6,11111222 
ADCP,ioos:station:NOAA.NDBC:WDEL1:1,2010-08-07T11:30:00Z,28.6620,-89.5510,29.6,11111222 
ADCP,ioos:station:NOAA.NDBC:WDEL1:1,2010-08-07T12:30:00Z,28.6620,-89.5510,29.7,11111222 
ADCP,ioos:station:NOAA.NDBC:WDEL1:1,2010-08-07T13:30:00Z,28.6620,-89.5510,29.5,11111222 
ADCP,ioos:station:NOAA.NDBC:WDEL1:1,2010-08-07T15:30:00Z,28.6620,-89.5510,30.0,11111222 
ADCP,ioos:station:NOAA.NDBC:WDEL1:1,2010-08-07T16:30:00Z,28.6620,-89.5510,29.8,11111222 
ADCP,ioos:station:NOAA.NDBC:WDEL1:1,2010-08-07T17:30:00Z,28.6620,-89.5510,29.3,11111222 
ADCP,ioos:station:NOAA.NDBC:WDEL1:1,2010-08-07T18:30:00Z,28.6620,-89.5510,28.7,11111222 
ADCP,ioos:station:NOAA.NDBC:WDEL1:1,2010-08-07T19:30:00Z,28.6620,-89.5510,29.9,11111222 
ADCP,ioos:station:NOAA.NDBC:WDEL1:1,2010-08-07T21:30:00Z,28.6620,-89.5510,30.4,11111222 
ADCP,ioos:station:NOAA.NDBC:WDEL1:1,2010-08-07T23:30:00Z,28.6620,-89.5510,30.4,11111222 
ADCP,ioos:station:NOAA.NDBC:WDEL1:1,2010-08-08T00:30:00Z,28.6620,-89.5510,30.3,11111222 
ADCP,ioos:station:NOAA.NDBC:WDEL1:1,2010-08-08T01:30:00Z,28.6620,-89.5510,30.2,11111222 
ADCP,ioos:station:NOAA.NDBC:WDEL1:1,2010-08-08T02:30:00Z,28.6620,-89.5510,30.2,11111222 
ADCP,ioos:station:NOAA.NDBC:WDEL1:1,2010-08-08T03:30:00Z,28.6620,-89.5510,30.1,11111222 
ADCP,ioos:station:NOAA.NDBC:WDEL1:1,2010-08-08T06:30:00Z,28.6620,-89.5510,30.0,11111222 
ADCP,ioos:station:NOAA.NDBC:WDEL1:1,2010-08-08T07:30:00Z,28.6620,-89.5510,29.8,11111222 
ADCP,ioos:station:NOAA.NDBC:WDEL1:1,2010-08-08T08:30:00Z,28.6620,-89.5510,29.8,11111222 
ADCP,ioos:station:NOAA.NDBC:WDEL1:1,2010-08-08T09:30:00Z,28.6620,-89.5510,29.8,11111222 
ADCP,ioos:station:NOAA.NDBC:WDEL1:1,2010-08-08T10:30:00Z,28.6620,-89.5510,29.7,11111222 
ADCP,ioos:station:NOAA.NDBC:WDEL1:1,2010-08-08T11:30:00Z,28.6620,-89.5510,29.6,11111222 
ADCP,ioos:station:NOAA.NDBC:WDEL1:1,2010-08-08T12:30:00Z,28.6620,-89.5510,29.9,11111222 
ADCP,ioos:station:NOAA.NDBC:WDEL1:1,2010-08-08T13:30:00Z,28.6620,-89.5510,29.8,11111222 
ADCP,ioos:station:NOAA.NDBC:WDEL1:1,2010-08-08T14:30:00Z,28.6620,-89.5510,30.0,11111222 
ADCP,ioos:station:NOAA.NDBC:WDEL1:1,2010-08-08T15:30:00Z,28.6620,-89.5510,30.1,11111222 
ADCP,ioos:station:NOAA.NDBC:WDEL1:1,2010-08-08T16:30:00Z,28.6620,-89.5510,30.7,11111222 
ADCP,ioos:station:NOAA.NDBC:WDEL1:1,2010-08-08T17:30:00Z,28.6620,-89.5510,28.9,11111222 
ADCP,ioos:station:NOAA.NDBC:WDEL1:1,2010-08-08T18:30:00Z,28.6620,-89.5510,31.6,11111222 
ADCP,ioos:station:NOAA.NDBC:WDEL1:1,2010-08-08T19:30:00Z,28.6620,-89.5510,29.1,11111222 
ADCP,ioos:station:NOAA.NDBC:WDEL1:1,2010-08-08T20:30:00Z,28.6620,-89.5510,29.7,11111222 
ADCP,ioos:station:NOAA.NDBC:WDEL1:1,2010-08-08T21:30:00Z,28.6620,-89.5510,29.9,11111222 
ADCP,ioos:station:NOAA.NDBC:WDEL1:1,2010-08-08T23:30:00Z,28.6620,-89.5510,30.2,11111222 
ADCP,ioos:station:NOAA.NDBC:WDEL1:1,2010-08-09T00:30:00Z,28.6620,-89.5510,30.2,11111222 
ADCP,ioos:station:NOAA.NDBC:WDEL1:1,2010-08-09T01:30:00Z,28.6620,-89.5510,30.1,11111222 
ADCP,ioos:station:NOAA.NDBC:WDEL1:1,2010-08-09T02:30:00Z,28.6620,-89.5510,30.1,11111222 
ADCP,ioos:station:NOAA.NDBC:WDEL1:1,2010-08-09T03:30:00Z,28.6620,-89.5510,30.2,11111222 
ADCP,ioos:station:NOAA.NDBC:WDEL1:1,2010-08-09T04:30:00Z,28.6620,-89.5510,30.3,11111222 
ADCP,ioos:station:NOAA.NDBC:WDEL1:1,2010-08-09T05:30:00Z,28.6620,-89.5510,30.5,11111222 
ADCP,ioos:station:NOAA.NDBC:WDEL1:1,2010-08-09T06:30:00Z,28.6620,-89.5510,30.0,11111222 
ADCP,ioos:station:NOAA.NDBC:WDEL1:1,2010-08-09T07:30:00Z,28.6620,-89.5510,29.8,11111222 
ADCP,ioos:station:NOAA.NDBC:WDEL1:1,2010-08-09T08:30:00Z,28.6620,-89.5510,29.7,11111222 
ADCP,ioos:station:NOAA.NDBC:WDEL1:1,2010-08-09T09:30:00Z,28.6620,-89.5510,29.6,11111222 
ADCP,ioos:station:NOAA.NDBC:WDEL1:1,2010-08-09T10:30:00Z,28.6620,-89.5510,29.6,11111222 
ADCP,ioos:station:NOAA.NDBC:WDEL1:1,2010-08-09T11:30:00Z,28.6620,-89.5510,29.7,11111222 
ADCP,ioos:station:NOAA.NDBC:WDEL1:1,2010-08-09T12:30:00Z,28.6620,-89.5510,30.0,11111222 
ADCP,ioos:station:NOAA.NDBC:WDEL1:1,2010-08-09T13:30:00Z,28.6620,-89.5510,28.4,11111222 
ADCP,ioos:station:NOAA.NDBC:WDEL1:1,2010-08-09T14:30:00Z,28.6620,-89.5510,28.4,11111222 
ADCP,ioos:station:NOAA.NDBC:WDEL1:1,2010-08-09T15:30:00Z,28.6620,-89.5510,29.6,11111222 
ADCP,ioos:station:NOAA.NDBC:WDEL1:1,2010-08-09T16:30:00Z,28.6620,-89.5510,30.4,11111222 
ADCP,ioos:station:NOAA.NDBC:WDEL1:1,2010-08-09T17:30:00Z,28.6620,-89.5510,29.8,11111222 
ADCP,ioos:station:NOAA.NDBC:WDEL1:1,2010-08-09T18:30:00Z,28.6620,-89.5510,25.5,11111222 
ADCP,ioos:station:NOAA.NDBC:WDEL1:1,2010-08-09T19:30:00Z,28.6620,-89.5510,25.5,11111222 
ADCP,ioos:station:NOAA.NDBC:WDEL1:1,2010-08-09T20:30:00Z,28.6620,-89.5510,26.2,11111222 
ADCP,ioos:station:NOAA.NDBC:WDEL1:1,2010-08-09T22:30:00Z,28.6620,-89.5510,27.0,11111222 
ADCP,ioos:station:NOAA.NDBC:WDEL1:1,2010-08-09T23:30:00Z,28.6620,-89.5510,27.0,11111222 
ADCP,ioos:station:NOAA.NDBC:WDEL1:1,2010-08-10T00:30:00Z,28.6620,-89.5510,27.6,11111222 
ADCP,ioos:station:NOAA.NDBC:WDEL1:1,2010-08-10T01:30:00Z,28.6620,-89.5510,28.2,11111222 
ADCP,ioos:station:NOAA.NDBC:WDEL1:1,2010-08-10T02:30:00Z,28.6620,-89.5510,29.3,11111222 
ADCP,ioos:station:NOAA.NDBC:WDEL1:1,2010-08-10T03:30:00Z,28.6620,-89.5510,30.3,11111222 
ADCP,ioos:station:NOAA.NDBC:WDEL1:1,2010-08-10T04:30:00Z,28.6620,-89.5510,29.5,11111222 
ADCP,ioos:station:NOAA.NDBC:WDEL1:1,2010-08-10T05:30:00Z,28.6620,-89.5510,29.5,11111222 
ADCP,ioos:station:NOAA.NDBC:WDEL1:1,2010-08-10T06:30:00Z,28.6620,-89.5510,29.0,11111222 
ADCP,ioos:station:NOAA.NDBC:WDEL1:1,2010-08-10T07:30:00Z,28.6620,-89.5510,28.5,11111222 
ADCP,ioos:station:NOAA.NDBC:WDEL1:1,2010-08-10T08:30:00Z,28.6620,-89.5510,28.7,11111222 
ADCP,ioos:station:NOAA.NDBC:WDEL1:1,2010-08-10T09:30:00Z,28.6620,-89.5510,28.2,11111222 
ADCP,ioos:station:NOAA.NDBC:WDEL1:1,2010-08-10T10:30:00Z,28.6620,-89.5510,28.0,11111222 
ADCP,ioos:station:NOAA.NDBC:WDEL1:1,2010-08-10T11:30:00Z,28.6620,-89.5510,28.0,11111222 
ADCP,ioos:station:NOAA.NDBC:WDEL1:1,2010-08-10T12:30:00Z,28.6620,-89.5510,28.6,11111222 
ADCP,ioos:station:NOAA.NDBC:WDEL1:1,2010-08-10T13:30:00Z,28.6620,-89.5510,29.2,11111222 
ADCP,ioos:station:NOAA.NDBC:WDEL1:1,2010-08-10T14:30:00Z,28.6620,-89.5510,29.5,11111222 
ADCP,ioos:station:NOAA.NDBC:WDEL1:1,2010-08-10T15:30:00Z,28.6620,-89.5510,30.3,11111222 
ADCP,ioos:station:NOAA.NDBC:WDEL1:1,2010-08-10T16:30:00Z,28.6620,-89.5510,30.8,11111222 
ADCP,ioos:station:NOAA.NDBC:WDEL1:1,2010-08-10T17:30:00Z,28.6620,-89.5510,30.6,11111222 
ADCP,ioos:station:NOAA.NDBC:WDEL1:1,2010-08-10T18:30:00Z,28.6620,-89.5510,31.7,11111222 
ADCP,ioos:station:NOAA.NDBC:WDEL1:1,2010-08-10T19:30:00Z,28.6620,-89.5510,31.7,11111222 
ADCP,ioos:station:NOAA.NDBC:WDEL1:1,2010-08-10T22:30:00Z,28.6620,-89.5510,32.2,11111222 
ADCP,ioos:station:NOAA.NDBC:WDEL1:1,2010-08-10T23:30:00Z,28.6620,-89.5510,31.8,11111222 
ADCP,ioos:station:NOAA.NDBC:WDEL1:1,2010-08-11T00:30:00Z,28.6620,-89.5510,31.6,11111222 
ADCP,ioos:station:NOAA.NDBC:WDEL1:1,2010-08-11T01:30:00Z,28.6620,-89.5510,31.2,11111222 
ADCP,ioos:station:NOAA.NDBC:WDEL1:1,2010-08-11T02:30:00Z,28.6620,-89.5510,31.6,11111222 
ADCP,ioos:station:NOAA.NDBC:WDEL1:1,2010-08-11T03:30:00Z,28.6620,-89.5510,31.5,11111222 
ADCP,ioos:station:NOAA.NDBC:WDEL1:1,2010-08-11T04:30:00Z,28.6620,-89.5510,31.4,11111222 
ADCP,ioos:station:NOAA.NDBC:WDEL1:1,2010-08-11T05:30:00Z,28.6620,-89.5510,31.2,11111222 
ADCP,ioos:station:NOAA.NDBC:WDEL1:1,2010-08-11T06:30:00Z,28.6620,-89.5510,31.6,11111222 
ADCP,ioos:station:NOAA.NDBC:WDEL1:1,2010-08-11T07:30:00Z,28.6620,-89.5510,30.7,11111222 
ADCP,ioos:station:NOAA.NDBC:WDEL1:1,2010-08-11T08:30:00Z,28.6620,-89.5510,29.0,11111222 
ADCP,ioos:station:NOAA.NDBC:WDEL1:1,2010-08-11T09:30:00Z,28.6620,-89.5510,31.1,11111222 
ADCP,ioos:station:NOAA.NDBC:WDEL1:1,2010-08-11T10:30:00Z,28.6620,-89.5510,28.1,11111222 
ADCP,ioos:station:NOAA.NDBC:WDEL1:1,2010-08-11T11:30:00Z,28.6620,-89.5510,28.6,11111222 
ADCP,ioos:station:NOAA.NDBC:WDEL1:1,2010-08-11T12:30:00Z,28.6620,-89.5510,28.5,11111222 
ADCP,ioos:station:NOAA.NDBC:WDEL1:1,2010-08-11T13:30:00Z,28.6620,-89.5510,27.7,11111222 
ADCP,ioos:station:NOAA.NDBC:WDEL1:1,2010-08-11T14:30:00Z,28.6620,-89.5510,26.9,11111222 
ADCP,ioos:station:NOAA.NDBC:WDEL1:1,2010-08-11T15:30:00Z,28.6620,-89.5510,27.6,11111222 
ADCP,ioos:station:NOAA.NDBC:WDEL1:1,2010-08-11T16:30:00Z,28.6620,-89.5510,27.3,11111222 
ADCP,ioos:station:NOAA.NDBC:WDEL1:1,2010-08-11T17:30:00Z,28.6620,-89.5510,27.0,11111222 
ADCP,ioos:station:NOAA.NDBC:WDEL1:1,2010-08-11T18:30:00Z,28.6620,-89.5510,27.3,11111222 
ADCP,ioos:station:NOAA.NDBC:WDEL1:1,2010-08-11T19:30:00Z,28.6620,-89.5510,28.2,11111222 
ADCP,ioos:station:NOAA.NDBC:WDEL1:1,2010-08-11T20:30:00Z,28.6620,-89.5510,27.7,11111222 
ADCP,ioos:station:NOAA.NDBC:WDEL1:1,2010-08-11T21:30:00Z,28.6620,-89.5510,27.9,11111222 
ADCP,ioos:station:NOAA.NDBC:WDEL1:1,2010-08-11T22:30:00Z,28.6620,-89.5510,27.9,11111222 
ADCP,ioos:station:NOAA.NDBC:WDEL1:1,2010-08-11T23:30:00Z,28.6620,-89.5510,27.6,11111222 
ADCP,ioos:station:NOAA.NDBC:WDEL1:1,2010-08-12T00:30:00Z,28.6620,-89.5510,28.1,11111222 
ADCP,ioos:station:NOAA.NDBC:WDEL1:1,2010-08-12T01:30:00Z,28.6620,-89.5510,28.3,11111222 
ADCP,ioos:station:NOAA.NDBC:WDEL1:1,2010-08-12T02:30:00Z,28.6620,-89.5510,29.0,11111222 
ADCP,ioos:station:NOAA.NDBC:WDEL1:1,2010-08-12T03:30:00Z,28.6620,-89.5510,29.2,11111222 
ADCP,ioos:station:NOAA.NDBC:WDEL1:1,2010-08-12T04:30:00Z,28.6620,-89.5510,30.6,11111222 
ADCP,ioos:station:NOAA.NDBC:WDEL1:1,2010-08-12T05:30:00Z,28.6620,-89.5510,31.0,11111222 
ADCP,ioos:station:NOAA.NDBC:WDEL1:1,2010-08-12T06:30:00Z,28.6620,-89.5510,29.1,11111222 
ADCP,ioos:station:NOAA.NDBC:WDEL1:1,2010-08-12T07:30:00Z,28.6620,-89.5510,29.6,11111222 
ADCP,ioos:station:NOAA.NDBC:WDEL1:1,2010-08-12T08:30:00Z,28.6620,-89.5510,28.6,11111222 
ADCP,ioos:station:NOAA.NDBC:WDEL1:1,2010-08-12T09:30:00Z,28.6620,-89.5510,28.6,11111222 
ADCP,ioos:station:NOAA.NDBC:WDEL1:1,2010-08-12T10:30:00Z,28.6620,-89.5510,28.8,11111222 
ADCP,ioos:station:NOAA.NDBC:WDEL1:1,2010-08-12T11:30:00Z,28.6620,-89.5510,28.8,11111222 
ADCP,ioos:station:NOAA.NDBC:WDEL1:1,2010-08-12T12:30:00Z,28.6620,-89.5510,29.0,11111222 
ADCP,ioos:station:NOAA.NDBC:WDEL1:1,2010-08-12T13:30:00Z,28.6620,-89.5510,29.0,11111222 
ADCP,ioos:station:NOAA.NDBC:WDEL1:1,2010-08-12T14:30:00Z,28.6620,-89.5510,28.5,11111222 
ADCP,ioos:station:NOAA.NDBC:WDEL1:1,2010-08-12T15:30:00Z,28.6620,-89.5510,27.1,11111222 
ADCP,ioos:station:NOAA.NDBC:WDEL1:1,2010-08-12T16:30:00Z,28.6620,-89.5510,27.8,11111222 
ADCP,ioos:station:NOAA.NDBC:WDEL1:1,2010-08-12T17:30:00Z,28.6620,-89.5510,28.2,11111222 
ADCP,ioos:station:NOAA.NDBC:WDEL1:1,2010-08-12T18:30:00Z,28.6620,-89.5510,28.6,11111222 
ADCP,ioos:station:NOAA.NDBC:WDEL1:1,2010-08-12T19:30:00Z,28.6620,-89.5510,28.6,11111222 
ADCP,ioos:station:NOAA.NDBC:WDEL1:1,2010-08-12T20:30:00Z,28.6620,-89.5510,27.9,11111222 
ADCP,ioos:station:NOAA.NDBC:WDEL1:1,2010-08-12T21:30:00Z,28.6620,-89.5510,29.0,11111222 
ADCP,ioos:station:NOAA.NDBC:WDEL1:1,2010-08-12T22:30:00Z,28.6620,-89.5510,29.1,11111222 
ADCP,ioos:station:NOAA.NDBC:WDEL1:1,2010-08-12T23:30:00Z,28.6620,-89.5510,29.4,11111222 
ADCP,ioos:station:NOAA.NDBC:WDEL1:1,2010-08-13T00:30:00Z,28.6620,-89.5510,29.5,11111222 
ADCP,ioos:station:NOAA.NDBC:WDEL1:1,2010-08-13T01:30:00Z,28.6620,-89.5510,29.5,11111222 
ADCP,ioos:station:NOAA.NDBC:WDEL1:1,2010-08-13T02:30:00Z,28.6620,-89.5510,29.4,11111222 
ADCP,ioos:station:NOAA.NDBC:WDEL1:1,2010-08-13T03:30:00Z,28.6620,-89.5510,29.5,11111222 
ADCP,ioos:station:NOAA.NDBC:WDEL1:1,2010-08-13T04:30:00Z,28.6620,-89.5510,29.5,11111222 
ADCP,ioos:station:NOAA.NDBC:WDEL1:1,2010-08-13T05:30:00Z,28.6620,-89.5510,29.3,11111222 
ADCP,ioos:station:NOAA.NDBC:WDEL1:1,2010-08-13T06:30:00Z,28.6620,-89.5510,29.3,11111222 
ADCP,ioos:station:NOAA.NDBC:WDEL1:1,2010-08-13T07:30:00Z,28.6620,-89.5510,29.3,11111222 
ADCP,ioos:station:NOAA.NDBC:WDEL1:1,2010-08-13T08:30:00Z,28.6620,-89.5510,29.3,11111222 
ADCP,ioos:station:NOAA.NDBC:WDEL1:1,2010-08-13T09:30:00Z,28.6620,-89.5510,29.4,11111222 
ADCP,ioos:station:NOAA.NDBC:WDEL1:1,2010-08-13T10:30:00Z,28.6620,-89.5510,29.5,11111222 
ADCP,ioos:station:NOAA.NDBC:WDEL1:1,2010-08-13T11:30:00Z,28.6620,-89.5510,29.4,11111222 
ADCP,ioos:station:NOAA.NDBC:WDEL1:1,2010-08-13T13:30:00Z,28.6620,-89.5510,29.6,11111222 
ADCP,ioos:station:NOAA.NDBC:WDEL1:1,2010-08-13T14:30:00Z,28.6620,-89.5510,29.6,11111222 
ADCP,ioos:station:NOAA.NDBC:WDEL1:1,2010-08-13T15:30:00Z,28.6620,-89.5510,29.7,11111222 
ADCP,ioos:station:NOAA.NDBC:WDEL1:1,2010-08-13T16:30:00Z,28.6620,-89.5510,29.4,11111222 
ADCP,ioos:station:NOAA.NDBC:WDEL1:1,2010-08-13T17:30:00Z,28.6620,-89.5510,29.4,11111222 
ADCP,ioos:station:NOAA.NDBC:WDEL1:1,2010-08-13T18:30:00Z,28.6620,-89.5510,29.0,11111222 
ADCP,ioos:station:NOAA.NDBC:WDEL1:1,2010-08-13T19:30:00Z,28.6620,-89.5510,27.1,11111222 
ADCP,ioos:station:NOAA.NDBC:WDEL1:1,2010-08-13T20:30:00Z,28.6620,-89.5510,28.3,11111222 
ADCP,ioos:station:NOAA.NDBC:WDEL1:1,2010-08-13T21:30:00Z,28.6620,-89.5510,28.2,11111222 
ADCP,ioos:station:NOAA.NDBC:WDEL1:1,2010-08-13T22:30:00Z,28.6620,-89.5510,29.1,11111222 
ADCP,ioos:station:NOAA.NDBC:WDEL1:1,2010-08-13T23:30:00Z,28.6620,-89.5510,29.4,11111222 
ADCP,ioos:station:NOAA.NDBC:WDEL1:1,2010-08-14T00:30:00Z,28.6620,-89.5510,29.6,11111222 
ADCP,ioos:station:NOAA.NDBC:WDEL1:1,2010-08-14T01:30:00Z,28.6620,-89.5510,29.5,11111222 
ADCP,ioos:station:NOAA.NDBC:WDEL1:1,2010-08-14T02:30:00Z,28.6620,-89.5510,29.6,11111222 
ADCP,ioos:station:NOAA.NDBC:WDEL1:1,2010-08-14T03:30:00Z,28.6620,-89.5510,29.9,11111222 
ADCP,ioos:station:NOAA.NDBC:WDEL1:1,2010-08-14T04:30:00Z,28.6620,-89.5510,29.8,11111222 